This demonstration page uses our WeatherBlox Daily Observations layout. Learn more.

Left ArrowRight Arrow

Hourly Observations for February 4, 2016

Temp ( °F °C ) Dew Point ( °F °C ) Humidity (%) Winds ( mph kmh ) Pressure ( in mb ) Visibility ( mi km ) Precip ( " mm )
12:14 am 00:14 Cloudy 30 -1 25 -4 80 80 W 14 22 30.15 1021 10 16 N/A
12:34 am 00:34 Cloudy 30 -1 25 -4 80 80 W 15 24 30.15 1021 10 16 N/A
12:55 am 00:55 Cloudy 30 -1 25 -4 80 80 W 16 26 30.15 1021 10 16 N/A
1:14 am 01:14 Cloudy 30 -1 25 -4 80 80 W 13 20 30.18 1022 10 16 N/A
1:34 am 01:34 Cloudy 30 -1 23 -5 75 75 W 16 26 30.18 1022 10 16 N/A
1:55 am 01:55 Cloudy 30 -1 25 -4 80 80 W 12 19 30.18 1022 10 16 N/A
2:14 am 02:14 Cloudy 30 -1 23 -5 75 75 W 17 28 30.18 1022 10 16 N/A
2:34 am 02:34 Cloudy 28 -2 25 -4 86 86 W 15 24 30.21 1023 7 11 N/A
2:55 am 02:55 Cloudy 28 -2 25 -4 86 86 W 13 20 30.21 1023 7 11 N/A
3:14 am 03:14 Cloudy 28 -2 23 -5 80 80 W 14 22 30.21 1023 10 16 N/A
3:35 am 03:35 Cloudy 28 -2 23 -5 80 80 WNW 13 20 30.21 1023 10 16 N/A
3:55 am 03:55 Cloudy 28 -2 25 -4 86 86 W 10 17 30.21 1023 10 16 N/A
4:14 am 04:14 Cloudy 28 -2 25 -4 86 86 W 12 19 30.21 1023 10 16 N/A
4:35 am 04:35 Cloudy 28 -2 23 -5 80 80 W 13 20 30.21 1023 10 16 N/A
4:55 am 04:55 Cloudy 28 -2 23 -5 80 80 W 9 15 N/A 7 11 N/A
5:14 am 05:14 Cloudy 28 -2 25 -4 86 86 W 9 15 30.21 1023 10 16 N/A
5:35 am 05:35 Cloudy 28 -2 23 -5 80 80 W 13 20 30.24 1024 10 16 N/A
5:54 am 05:54 Cloudy 28 -2 23 -5 80 80 WNW 15 24 30.24 1024 10 16 N/A
6:15 am 06:15 Cloudy 27 -3 23 -5 86 86 W 8 13 30.24 1024 10 16 N/A
6:35 am 06:35 Cloudy 27 -3 21 -6 80 80 W 9 15 30.24 1024 10 16 N/A
6:54 am 06:54 Cloudy 27 -3 23 -5 86 86 W 8 13 30.24 1024 4 6 N/A
7:15 am 07:15 Cloudy 27 -3 23 -5 86 86 W 10 17 30.24 1024 4 6 N/A
7:34 am 07:34 Cloudy 27 -3 23 -5 86 86 W 10 17 30.24 1024 7 11 N/A
7:54 am 07:54 Cloudy 27 -3 21 -6 80 80 W 10 17 30.24 1024 10 16 N/A
8:15 am 08:15 Cloudy 27 -3 23 -5 86 86 WNW 12 19 30.24 1024 3 5 N/A
8:34 am 08:34 Cloudy 27 -3 23 -5 86 86 W 10 17 30.24 1024 10 16 N/A
8:54 am 08:54 Cloudy 27 -3 23 -5 86 86 W 8 13 30.27 1025 10 16 N/A
9:15 am 09:15 Cloudy 27 -3 23 -5 86 86 W 8 13 30.27 1025 7 11 N/A
9:34 am 09:34 Cloudy 27 -3 21 -6 80 80 W 8 13 30.27 1025 7 11 N/A
9:54 am 09:54 Cloudy 27 -3 21 -6 80 80 W 10 17 30.27 1025 7 11 N/A
10:14 am 10:14 Cloudy 28 -2 21 -6 74 74 W 9 15 30.27 1025 7 11 N/A
10:34 am 10:34 Cloudy 28 -2 21 -6 74 74 W 14 22 30.27 1025 7 11 N/A
10:55 am 10:55 Cloudy 27 -3 23 -5 86 86 NW 10 17 30.27 1025 10 16 N/A
11:14 am 11:14 Cloudy 28 -2 21 -6 74 74 WNW 12 19 30.30 1026 10 16 N/A
11:34 am 11:34 Cloudy 27 -3 21 -6 80 80 WNW 13 20 30.27 1025 10 16 N/A
11:55 am 11:55 Cloudy 28 -2 19 -7 69 69 WNW 10 17 30.27 1025 10 16 N/A
12:14 pm 12:14 Cloudy 28 -2 19 -7 69 69 W 10 17 30.27 1025 7 11 N/A
12:34 pm 12:34 Cloudy 28 -2 19 -7 69 69 W 8 13 N/A 10 16 N/A
12:55 pm 12:55 Cloudy 28 -2 19 -7 69 69 W 8 13 30.27 1025 10 16 N/A
1:14 pm 13:14 Cloudy 28 -2 19 -7 69 69 W 8 13 30.27 1025 10 16 N/A
1:34 pm 13:34 Cloudy 28 -2 19 -7 69 69 W 10 17 30.27 1025 10 16 N/A
1:55 pm 13:55 Cloudy 28 -2 19 -7 69 69 W 14 22 30.27 1025 10 16 N/A
2:14 pm 14:14 Cloudy 28 -2 19 -7 69 69 W 10 17 30.27 1025 10 16 N/A
2:34 pm 14:34 Cloudy 28 -2 19 -7 69 69 W 10 17 30.27 1025 10 16 N/A
2:55 pm 14:55 Cloudy 30 -1 19 -7 64 64 W 12 19 30.27 1025 10 16 N/A
3:14 pm 15:14 Mostly Cloudy 30 -1 19 -7 64 64 W 13 20 30.27 1025 10 16 N/A
3:35 pm 15:35 Mostly Cloudy 32 undefined 19 -7 60 60 W 14 22 30.27 1025 10 16 N/A
3:54 pm 15:54 Partly Cloudy 30 -1 18 -8 59 59 W 14 22 30.27 1025 10 16 N/A
4:14 pm 16:14 Sunny 30 -1 18 -8 59 59 WNW 10 17 30.27 1025 10 16 N/A
4:35 pm 16:35 Sunny 30 -1 18 -8 59 59 W 14 22 30.27 1025 10 16 N/A
4:54 pm 16:54 Sunny 30 -1 16 -9 55 55 W 9 15 30.27 1025 10 16 N/A
5:14 pm 17:14 Sunny 28 -2 16 -9 59 59 WNW 9 15 30.30 1026 10 16 N/A
5:35 pm 17:35 Sunny 28 -2 16 -9 59 59 WNW 10 17 30.30 1026 10 16 N/A
5:54 pm 17:54 Sunny 28 -2 16 -9 59 59 WNW 8 13 30.30 1026 10 16 N/A
6:15 pm 18:15 Clear 27 -3 18 -8 69 69 WNW 8 13 30.30 1026 10 16 N/A
6:35 pm 18:35 Clear 25 -4 16 -9 69 69 WNW 7 11 30.36 1028 10 16 N/A
6:54 pm 18:54 Clear 25 -4 16 -9 69 69 WNW 8 13 30.36 1028 10 16 N/A
7:15 pm 19:15 Clear 25 -4 18 -8 74 74 W 6 9 30.36 1028 10 16 N/A
7:34 pm 19:34 Clear 23 -5 18 -8 80 80 W 6 9 30.36 1028 10 16 N/A
7:54 pm 19:54 Clear 23 -5 18 -8 80 80 W 6 9 30.36 1028 10 16 N/A
8:15 pm 20:15 Clear 23 -5 18 -8 80 80 W 5 7 30.36 1028 10 16 N/A
8:34 pm 20:34 Clear 23 -5 19 -7 86 86 W 5 7 30.36 1028 10 16 N/A
8:54 pm 20:54 Clear 23 -5 19 -7 86 86 WSW 3 6 30.36 1028 10 16 N/A
9:14 pm 21:14 Clear 23 -5 19 -7 86 86 W 5 7 30.36 1028 10 16 N/A
9:34 pm 21:34 Clear 23 -5 19 -7 86 86 W 5 7 30.39 1029 10 16 N/A
9:55 pm 21:55 Clear 23 -5 19 -7 86 86 WSW 3 6 30.39 1029 10 16 N/A
10:14 pm 22:14 Clear 23 -5 19 -7 86 86 N N/A 30.39 1029 10 16 N/A
10:35 pm 22:35 Clear 23 -5 18 -8 80 80 WSW 3 6 30.39 1029 10 16 N/A
10:54 pm 22:54 Clear 23 -5 18 -8 80 80 SW 3 6 30.39 1029 10 16 N/A
11:14 pm 23:14 Clear 23 -5 18 -8 80 80 WSW 3 6 30.39 1029 10 16 N/A
11:35 pm 23:35 Clear 23 -5 18 -8 80 80 N N/A 30.39 1029 10 16 N/A
11:54 pm 23:54 Clear 23 -5 19 -7 86 86 SSW 3 6 30.39 1029 10 16 N/A

Powered by AerisWeather